Regional Weather Roundup
Issued by NWS

Home | Current Version | Previous Version | Text Only | Print | Product List | Glossary Off
Versions: 1 2 3 4 5 6 7 8 9 10 11 12 13 14 15 16 17 18 19 20 21 22 23 24 25 26 27 28 29 30 31 32 33 34 35 36 37 38 39 40 41 42 43 44 45 46 47 48 49 50

884
ASUS43 KMPX 101510
RWRMN
WEATHER ROUNDUP FOR MINNESOTA
NATIONAL WEATHER SERVICE TWIN CITIES/CHANHASSEN MN
900 AM CST WED FEB 10 2016


NOTE: "FAIR" INDICATES FEW OR NO CLOUDS BELOW 12,000 FEET WITH NO
SIGNIFICANT WEATHER AND/OR OBSTRUCTIONS TO VISIBILITY. N/A MEANS
CURRENT SKY AND/OR WEATHER CONDITIONS ARE NOT AVAILABLE.

MNZ060>063-068>070-101600-
   Twin Cities Metro

CITY           SKY/WX    TMP DP  RH WIND       PRES   REMARKS
TWIN CITIES    CLOUDY     4  -5  66 CALM      30.14R
ST PAUL        MOSUNNY    4  -5  66 N9        30.15S WCI -10
CRYSTAL        PTSUNNY    4  -5  66 CALM      30.12S
LAKEVILLE      MOSUNNY    3  -4  72 N3        30.12R
EDEN PRAIRIE   CLOUDY     6  -4  63 VRB3      30.12R
SOUTH ST PAUL  CLOUDY     5  -5  64 N5        30.13S WCI  -4
LAKE ELMO      FAIR       3  -4  72 N5        30.14R WCI  -6
$$
MNZ001>005-007-008-013>017-022>024-027-028-101600-
   Northwest Minnesota

CITY           SKY/WX    TMP DP  RH WIND       PRES   REMARKS
BEMIDJI        CLOUDY    -6 -10  81 E5        30.10R WCI -17
HALLOCK        CLOUDY     1  -6  71 E7        30.15S WCI -11
ROSEAU         CLOUDY   -11 -17  77 E3        30.16S
WARROAD        MOSUNNY  -11 -17  77 NE3       30.15S
THIEF RVR FALL CLOUDY     0  -6  78 E9        30.12S WCI -16
CROOKSTON      CLOUDY     3  -2  78 SE9       30.14R WCI -11
FOSSTON          N/A      0  -6  78 E5        30.10R WCI -10
DETROIT LAKES  CLOUDY     3   0  85 SE6       30.07F WCI  -8
MOORHEAD       MIX PCPN   7   1  78 SE6       30.10S WCI  -3
PARK RAPIDS    CLOUDY    -1  -8  72 E3        30.07S
MAHNOMEN       CLOUDY     1  -6  73 E6        30.09S WCI -10
$$
MNZ006-009>011-018-025>026-101600-
   North Central Minnesota

CITY           SKY/WX    TMP DP  RH WIND       PRES   REMARKS
BAUDETTE       MOSUNNY  -21 -23  90 CALM      30.14R
FLAG ISLAND    MOSUNNY  -17 -20  83 CALM      30.16S
INTL FALLS     CLOUDY   -13 -18  78 NE3       30.14R
WASKISH        CLOUDY   -11 -15  84 E5        30.13S WCI -23
LONGVILLE      CLOUDY    -6  -9  84 CALM      30.10S
GRAND RAPIDS   CLOUDY   -11 -17  77 N6        30.09S WCI -25
CRANE LAKE     CLOUDY   -22 -27  76 CALM      30.16S
ORR            CLOUDY   -13 -18  77 CALM      30.07S
COOK           CLOUDY   -18 -22  83 CALM      30.09S
WALKER         CLOUDY    -6 -11  78 E3        30.10R
$$
MNZ012-019>021-037-101600-
   Northeast Minnesota

CITY           SKY/WX    TMP DP  RH WIND       PRES   REMARKS
DULUTH         CLOUDY    -7 -13  75 N7        30.05R WCI -21
ELY            CLOUDY   -13 -18  77 NE3       30.08S
HIBBING        CLOUDY   -15 -18  86 NW5       30.08R WCI -27
EVELETH        CLOUDY    -8 -13  77 NE6       30.08S WCI -21
DULUTH HARBOR  MOSUNNY    1  -4  78 N10       30.15R WCI -14
TWO HARBORS    SUNNY      0  -9  65 NE5       30.06R WCI -10
SILVER BAY     SUNNY     -2 -13  60 N3        30.06S
GRAND MARAIS     N/A     -5 -16  59 N18G31    30.10S WCI -28
G MARAIS ARPRT SUNNY    -13 -20  70 NW10      29.97F WCI -32
$$
MNZ029>031-032-039>041-046>048-054>057-064-101600-
   West Central Minnesota

CITY           SKY/WX    TMP DP  RH WIND       PRES   REMARKS
FERGUS FALLS   LGT SNOW   5   0  78 E7        30.11F WCI  -7
WHEATON        LGT SNOW   9   5  85 E13       30.09S WCI  -7
MORRIS         LGT SNOW   7   1  78 E13       30.06F WCI  -9
ALEXANDRIA     CLOUDY     3  -5  69 E9        30.06F WCI -12
WADENA         CLOUDY     0  -6  78 E5        30.08S WCI -10
GLENWOOD       CLOUDY     3  -2  78 E9        30.07S WCI -11
APPLETON       LGT SNOW   9   3  78 E12       30.08F WCI  -6
BENSON         LGT SNOW   7   1  78 SE3       30.08S
ORTONVILLE     LGT SNOW   7   1  78 SE10      30.06S WCI  -8
MADISON        LGT SNOW  10   5  79 E10       30.08S WCI  -3
WILLMAR        LGT SNOW   9   1  72 E6        30.10S WCI  -1
$$
MNZ033>034-036-042>043-049>051-058-059-101600-
   Central Minnesota

CITY           SKY/WX    TMP DP  RH WIND       PRES   REMARKS
ST CLOUD       CLOUDY     2  -5  72 CALM      30.11F
SAUK CENTRE    CLOUDY     2  -5  72 E5        30.09S WCI  -7
PAYNESVILLE    CLOUDY     4  -3  71 E5        30.09F WCI  -5
AITKIN         CLOUDY    -2 -11  65 N5        30.10S WCI -12
PINE RIVER     CLOUDY    -4  -9  77 CALM      30.13S
BRAINERD       PTSUNNY   -3  -9  75 NE7       30.11R WCI -16
STAPLES        CLOUDY    -2  -8  78 CALM      30.10R
LONG PRAIRIE   CLOUDY     1  -6  71 NE6       30.09S WCI -10
LITTLE FALLS   CLOUDY     0  -8  71 CALM      30.12S
LITCHFIELD     CLOUDY     7   0  72 NE6       30.10S WCI  -3
BUFFALO        CLOUDY     4  -4  69 N3        30.13S
MAPLE LAKE     CLOUDY     5  -2  73 N5        30.13R WCI  -4
$$
MNZ037-044-045-052-053-101600-
   East Central Minnesota

CITY           SKY/WX    TMP DP  RH WIND       PRES   REMARKS
PRINCETON      MOSUNNY    3  -6  66 N5        30.12R WCI  -6
MORA           CLOUDY     0  -8  71 N3        30.14S
CAMBRIDGE      MOSUNNY    1  -8  66 CALM      30.11S
RUSH CITY      CLOUDY    -2  -8  74 N5        30.14R WCI -12
MOOSE LAKE     CLOUDY    -6 -11  77 N3        30.10S
HINCKLEY       FAIR      -2  -8  78 N3        30.13R
CLOQUET        CLOUDY    -9 -15  77 CALM      30.08R
MCGREGOR       CLOUDY    -8 -11  84 NW5       30.11S WCI -19
$$
MNZ071>073-080-081-089-090-097-098-101600-
   Southwest Minnesota

CITY           SKY/WX    TMP DP  RH WIND       PRES   REMARKS
MONTEVIDEO     LGT SNOW   9   3  78 SE8       30.10S WCI  -4
GRANITE FALLS  LGT SNOW  10   6  82 E6        30.10S WCI   0
CANBY          LGT SNOW  12   9  85 SE8       30.07R WCI   1
MARSHALL       LGT SNOW   8   4  83 SE10      30.06S FOG     WCI  -6
REDWOOD FALLS  LGT SNOW   7   3  84 E6        30.10S FOG     WCI  -3
OLIVIA         LGT SNOW  10   5  79 E5        30.10R WCI   2
PIPESTONE      LGT SNOW  16   7  67 SE10      29.97S WCI   3
WINDOM         LGT SNOW   7   3  85 E5        30.04S WCI  -2
WORTHINGTON    CLOUDY     9   5  85 E10       30.02S WCI  -6
JACKSON        LGT SNOW  10   3  72 E8        30.04S VSB 1   WCI  -1
TRACY          LGT SNOW   9   6  86 E7        30.05S WCI  -2
SLAYTON        LGT SNOW   9   7  92 E9        30.02R VSB 1   WCI  -4
$$
MNZ065>067-074>077-082>085-091>093-101600-
   South Central Minnesota

CITY           SKY/WX    TMP DP  RH WIND       PRES   REMARKS
MANKATO        CLOUDY     7  -2  66 NE6       30.10S WCI  -3
NEW ULM        FLURRIES   7  -2  66 E5        30.10S WCI  -2
ST JAMES       LGT SNOW   7   3  85 E6        30.09F WCI  -3
FAIRMONT       CLOUDY     7   0  72 E6        30.06S WCI  -3
GLENCOE        CLOUDY     6  -1  72 NE5       30.11S WCI  -3
FARIBAULT        N/A      3  -2  78 CALM      30.11S
OWATONNA       CLOUDY     3  -2  78 N3        30.09S
WASECA         CLOUDY     5   0  78 NE5       30.11S WCI  -4
ALBERT LEA     CLOUDY     7   0  72 NE5       30.08R WCI  -2
$$
MNZ078>079-086>088-094>096-101600-
   Southeast Minnesota

CITY           SKY/WX    TMP DP  RH WIND       PRES   REMARKS
ROCHESTER      CLOUDY     2  -4  76 NW8       30.07R WCI -12
RED WING       MOSUNNY    3  -6  66 N5        30.13S WCI  -6
STANTON        CLOUDY     5  -3  71 NE3       30.12R
DODGE CENTER   CLOUDY     3  -2  78 N6        30.07R WCI  -8
WINONA         MOSUNNY    5  -2  72 NW5       30.14R WCI  -4
AUSTIN         CLOUDY     3  -2  78 N7        30.07S WCI  -9
PRESTON        CLOUDY     1  -6  73 N8        30.07R WCI -13
$$
ABBREVIATIONS USED IN REMARKS
   TC - TEMPERATURES IN CELSIUS
  WCI - WIND CHILL INDEX
   HX - HEAT INDEX
  VSB - VISIBILITY
$$




USA.gov is the U.S. government's official web portal to all federal, state and local government web resources and services.